Weather History for Phoenix Deer Valley, AZ

Change the Weather History Date:

Friday, April 26, 2013

  Actual Average Record
Temperature  
Mean Temperature 72 °F -  
Max Temperature 88 °F 82 °F 96 °F (2001)
Min Temperature 57 °F 58 °F 51 °F (1998)
Cooling Degree Days 8    
Growing Degree Days 22 (Base 50)    
Moisture  
Dew Point 31 °F    
Average Humidity 22    
Maximum Humidity 41    
Minimum Humidity 10    
Precipitation  
Precipitation 0.00 in - - ()
Sea Level Pressure  
Sea Level Pressure 29.99 in    
Wind  
Wind Speed 4 mph (WNW)    
Max Wind Speed 13 mph    
Max Gust Speed -    
Visibility 10 miles    
Events      
Averages and records for this station are not official NWS values.
T = Trace of Precipitation, MM = Missing Value Source: NWS Daily Summary

Daily Weather History Graph

Daily Weather History Graph

Search for Another Location

Airport:

Trip Planner

Search our weather history database for the weather conditions in past years. The results will help you decide how hot, cold, wet, or windy it might be!

Date:

Astronomy

Apr. 26, 2013 Rise Set
Actual Time 5:44 AM MST 7:07 PM MST
Civil Twilight 5:18 AM MST 7:34 PM MST
Nautical Twilight 4:46 AM MST 8:05 PM MST
Astronomical Twilight 4:14 AM MST 8:38 PM MST
Moon 8:30 PM MST (4/26) 6:17 AM MST (4/26)
Length of Visible Light 14h 16m
Length of Day
13h 23m
Full, 99% of the Moon is Illuminated
Apr 26
Full
May 2
Last Quarter
May 9
New
May 17
First Quarter
May 24
Full

Hourly Weather History & Observations

Time (MST) Temp. Dew Point Humidity Pressure Visibility Wind Dir Wind Speed Gust Speed Precip Events Conditions
12:53 AM 64.0 °F 33.1 °F 31% 29.96 in 10.0 mi Calm Calm - N/A   Clear
1:53 AM 64.0 °F 34.0 °F 33% 29.96 in 10.0 mi NE 10.4 mph - N/A   Clear
2:53 AM 63.0 °F 33.1 °F 33% 29.96 in 10.0 mi NNE 12.7 mph - N/A   Clear
3:53 AM 61.0 °F 33.1 °F 35% 29.99 in 10.0 mi North 5.8 mph - N/A   Clear
4:53 AM 62.1 °F 34.0 °F 35% 29.99 in 10.0 mi Calm Calm - N/A   Clear
5:53 AM 57.9 °F 34.0 °F 41% 30.01 in 10.0 mi North 3.5 mph - N/A   Clear
6:53 AM 63.0 °F 35.1 °F 35% 30.04 in 10.0 mi NE 8.1 mph - N/A   Clear
7:53 AM 69.1 °F 35.1 °F 29% 30.05 in 10.0 mi Calm Calm - N/A   Clear
8:53 AM 71.1 °F 35.1 °F 27% 30.06 in 10.0 mi Calm Calm - N/A   Clear
9:53 AM 73.9 °F 35.1 °F 24% 30.06 in 10.0 mi Calm Calm - N/A   Clear
10:53 AM 78.1 °F 35.1 °F 21% 30.05 in 10.0 mi West 6.9 mph - N/A   Clear
11:53 AM 80.1 °F 34.0 °F 19% 30.03 in 10.0 mi Variable 5.8 mph - N/A   Clear
12:53 PM 82.9 °F 34.0 °F 17% 30.01 in 10.0 mi Variable 5.8 mph - N/A   Clear
1:53 PM 84.0 °F 32.0 °F 15% 29.99 in 10.0 mi Calm Calm - N/A   Clear
2:53 PM 86.0 °F 30.9 °F 14% 29.96 in 10.0 mi SSW 6.9 mph - N/A   Clear
3:53 PM 87.1 °F 28.0 °F 12% 29.94 in 10.0 mi West 6.9 mph - N/A   Clear
4:53 PM 88.0 °F 25.0 °F 10% 29.93 in 10.0 mi West 4.6 mph - N/A   Clear
5:53 PM 87.1 °F 28.0 °F 12% 29.92 in 10.0 mi SW 9.2 mph - N/A   Clear
6:53 PM 84.9 °F 28.0 °F 13% 29.93 in 10.0 mi SW 10.4 mph - N/A   Clear
7:53 PM 82.0 °F 26.1 °F 13% 29.94 in 10.0 mi SW 6.9 mph - N/A   Clear
8:53 PM 79.0 °F 24.1 °F 13% 29.95 in 10.0 mi Calm Calm - N/A   Clear
9:53 PM 78.1 °F 24.1 °F 14% 29.97 in 10.0 mi Calm Calm - N/A   Clear
10:53 PM 70.0 °F 26.1 °F 19% 29.97 in 10.0 mi Calm Calm - N/A   Clear
11:53 PM 70.0 °F 28.9 °F 22% 29.97 in 10.0 mi Calm Calm - N/A   Clear